Location: McFarlands Corners
(41.4117°N, 81.3382°W)
Time: 17:28:14
(UTC+00:00)

SR - Pass Details

Date: 25 February 2026
Orbit: 572 x 849 km, 66.7° (Epoch: 12 March)

Event Time Altitude Azimuth Distance (km) Brightness Sun altitude
Rises 18:25:58 0° 311° (NW) 3,179 ? 38.5°
Reaches altitude 10° 18:29:12 10° 289° (WNW) 2,307 ? 38.4°
Maximum altitude 18:32:15 16° 254° (WSW) 1,980 ? 38.2°
Drops below altitude 10° 18:35:25 10° 219° (SW) 2,388 ? 38.0°
Sets 18:38:52 0° 198° (SSW) 3,352 ? 37.8°
